Tracking 20037 objects as of 17-Nov-2019
Live streaming from Space Station
objects crossing your sky now

IRAZU

Track IRAZU now!
10-day predictions
IRAZU is classified as:


NORAD ID: 43468
Int'l Code: 1998-067NR
Perigee: 335.8 km
Apogee: 340.4 km
Inclination: 51.6 °
Period: 91.1 minutes
Semi major axis: 6709 km
RCS: Unknown
Launch date: November 30, 1998
Source: COSTA RICA (CRI)
Launch site: TYURATAM MISSILE AND SPACE COMPLEX (TTMTR)

Uplink (MHz):
Downlink (MHz): 436.500
Beacon (MHz):
Mode: 9600bps FSK
Call sign: TI0IRA
Status: Active

aabbcc
Your satellite tracking list
Your tracking list is empty




NASA's NSSDC Master Catalog

Two Line Element Set (TLE):
1 43468U 98067NR  19321.15553826  .00072275  00000-0  38390-3 0  9995
2 43468  51.6361 274.4650 0003457  91.1251 269.0146 15.79823263186790
Source of the keplerian elements: AMSAT